Regional Weather Roundup
Issued by NWS Nashville, TN

Home | Current Version | Previous Version | Text Only | Print | Product List | Glossary On
Versions: 1 2 3 4 5 6 7 8 9 10 11 12 13 14 15 16 17 18 19 20 21 22 23 24 25 26 27 28 29 30 31 32 33 34 35 36 37 38 39 40 41 42 43 44 45 46 47 48 49 50
000
ASUS44 KOHX 241110
RWROHX
MIDDLE TENNESSEE HOURLY WEATHER ROUNDUP
NATIONAL WEATHER SERVICE NASHVILLE TN
600 AM CDT MON JUL 24 2017

NOTE: "FAIR" INDICATES FEW OR NO CLOUDS BELOW 12,000 FEET WITH
NO SIGNIFICANT WEATHER AND/OR OBSTRUCTIONS TO VISIBILITY.

* THESE REPORTS ARE NOT UNDER NWS QUALITY CONTROL AND MAY NOT
  REPORT WEATHER SUCH AS PRECIPITATION AND FOG.


TNZ005>011-023>034-057-059-062>066-078-080-241200
...NORTHERN MIDDLE TENNESSEE...

CITY           SKY/WX    TMP DP  RH WIND       PRES   REMARKS
CLARKSVILLE    MOCLDY    72  69  90 SW5       29.93R
CROSSVILLE     CLOUDY    66  65  96 S5        30.00R FOG
GALLATIN       CLEAR     70  68  94 CALM      29.96R
DICKSON        PTCLDY    71  68  90 CALM      29.94R
LEBANON        PTCLDY    68  67  96 CALM      29.93R
NASHVILLE      MOCLDY    70  68  93 SW3       29.94R
PORTLAND         N/A     72  70  94 CALM      29.93R FOG
SMYRNA         CLEAR     69  68  96 CALM      29.96R
SPARTA         FOG       66  66 100 CALM      29.95R VSB 1/2
SPRINGFIELD    CLEAR     72  72 100 CALM      29.92R
WEST NASHVILLE CLEAR     72  70  94 SW5       29.92R
$$
TNZ056-058-060-061-075>077-079-093>097-241200
...SOUTHERN MIDDLE TENNESSEE...

CITY           SKY/WX    TMP DP  RH WIND       PRES   REMARKS
FAYETTEVILLE   CLEAR     70  70 100 CALM      29.95R
MCMINNVILLE    CLEAR     68  68 100 CALM      29.97R
MURFREESBORO   CLEAR     69  68  97 CALM      29.95R
PULASKI        CLEAR     70  70 100 N3        29.95R
SHELBYVILLE    CLEAR     68  68 100 CALM      29.95R
TULLAHOMA      CLEAR     66  64  94 CALM      29.97R
WINCHESTER     CLEAR     70  70 100 CALM      29.96R
$$


...KEY TO REMARKS...
VSB - VISIBILITY IN MILES
WCI - WIND CHILL INDEX
HX  - HEAT INDEX




USA.gov is the U.S. government's official web portal to all federal, state and local government web resources and services.